DW1824 Weather Reports


Display with metric or nautical units.
time (UTC)temp
F
wind
direction
speed
MPH
gust
MPH
rain 1hr
in
rain 24hr
in
rain mn
in
humidity
%
barometer
mb
20210919061201 73 161 0.0 0.0 0.00 0.00 0.00 94 1014.8
20210919060652 73 161 0.0 0.0 0.00 0.00 0.00 94 1014.8
20210919060203 73 161 0.0 0.0 0.00 0.00 0.00 93 1014.9
20210919055651 73 161 0.0 0.0 0.00 0.00 0.00 93 1015.0
20210919055203 73 161 0.0 0.0 0.00 0.00 0.00 93 1015.0
20210919054656 73 161 0.0 0.0 0.00 0.00 0.00 93 1014.9
20210919054157 73 161 0.0 0.0 0.00 0.00 0.00 93 1015.1
20210919053708 74 161 0.0 0.0 0.00 0.00 0.00 93 1015.1
20210919053158 74 161 0.0 0.0 0.00 0.00 0.00 93 1015.1
20210919052649 74 161 0.0 0.0 0.00 0.00 0.00 92 1015.0
20210919052202 74 161 0.0 0.0 0.00 0.00 0.00 92 1015.1
20210919051653 74 161 0.0 0.0 0.00 0.00 0.00 92 1015.1
20210919051153 74 161 0.0 0.0 0.00 0.00 0.00 92 1015.1
20210919050704 74 161 0.0 0.0 0.00 0.00 0.00 91 1015.1
20210919050158 74 161 0.0 0.0 0.00 0.00 0.00 91 1015.1
20210919045651 75 161 0.0 0.0 0.00 0.00 0.00 91 1015.1
20210919045202 75 161 0.0 0.0 0.00 0.00 0.00 90 1015.1
20210919044654 75 161 0.0 2.0 0.00 0.00 0.00 90 1015.1
20210919044156 75 161 0.0 2.0 0.00 0.00 0.00 90 1015.1
20210919043706 75 161 1.0 2.0 0.00 0.00 0.00 90 1015.1
20210919043158 75 161 1.0 2.0 0.00 0.00 0.00 90 1015.1
20210919042650 75 161 1.0 3.0 0.00 0.00 0.00 90 1015.0
20210919042201 75 161 1.0 3.0 0.00 0.00 0.00 90 1015.1
20210919041651 75 161 1.0 4.0 0.00 0.00 0.00 89 1015.0
20210919041158 76 163 0.0 0.0 0.00 0.00 0.00 89 1015.0
20210919040708 76 163 0.0 0.0 0.00 0.00 0.00 89 1015.0
20210919040159 76 163 0.0 1.0 0.00 0.00 0.00 89 1015.0
20210919035654 76 163 0.0 2.0 0.00 0.00 0.00 89 1014.9
20210919035206 76 163 1.0 2.0 0.00 0.00 0.00 88 1014.9
20210919034656 76 163 1.0 2.0 0.00 0.00 0.00 88 1014.9
20210919034158 76 163 0.0 4.0 0.00 0.00 0.00 88 1015.0
20210919033709 76 163 0.0 4.0 0.00 0.00 0.00 88 1015.0
20210919033200 76 180 2.0 5.0 0.00 0.00 0.00 88 1014.9
20210919032651 76 165 3.0 5.0 0.00 0.00 0.00 88 1015.0
20210919032207 76 159 2.0 3.0 0.00 0.00 0.00 88 1015.0
20210919031657 76 168 2.0 2.0 0.00 0.00 0.00 88 1014.9
20210919031159 76 168 0.0 2.0 0.00 0.00 0.00 88 1014.9
20210919030651 76 168 0.0 2.0 0.00 0.00 0.00 87 1014.9
20210919030202 76 168 1.0 4.0 0.00 0.00 0.00 88 1014.9
20210919025654 76 163 2.0 3.0 0.00 0.00 0.00 89 1015.0
20210919025202 76 168 2.0 2.0 0.00 0.00 0.00 89 1015.0
20210919024654 76 171 1.0 2.0 0.00 0.00 0.00 89 1015.0
20210919024158 76 145 1.0 2.0 0.00 0.00 0.00 88 1015.1
20210919023652 76 145 1.0 2.0 0.00 0.00 0.00 89 1015.1
20210919023203 76 74 0.0 2.0 0.00 0.00 0.00 89 1015.1
20210919022655 76 74 0.0 2.0 0.00 0.00 0.00 89 1014.9
20210919022206 76 327 0.0 2.0 0.00 0.00 0.00 88 1014.9
20210919021657 77 327 0.0 2.0 0.00 0.00 0.00 89 1014.9
20210919021200 77 327 1.0 2.0 0.00 0.00 0.00 88 1014.8
20210919020710 77 55 0.0 1.0 0.00 0.00 0.00 87 1014.7
20210919020200 77 54 0.0 2.0 0.00 0.00 0.00 88 1014.7
20210919015651 77 54 1.0 2.0 0.00 0.00 0.00 87 1014.6
20210919015202 78 55 0.0 1.0 0.00 0.00 0.00 86 1014.5
20210919014657 78 55 0.0 1.0 0.00 0.00 0.00 86 1014.5
20210919014201 78 55 0.0 1.0 0.00 0.00 0.00 87 1014.5
20210919013652 78 54 0.0 1.0 0.00 0.00 0.00 85 1014.4
20210919011702 79 54 0.0 2.0 0.00 0.00 0.00 83 1014.3
20210919011201 79 55 0.0 2.0 0.00 0.00 0.00 83 1014.3
20210919010712 80 55 0.0 1.0 0.00 0.00 0.00 82 1014.2
20210919010202 80 100 0.0 1.0 0.00 0.00 0.00 82 1014.1
20210919005656 80 99 0.0 1.0 0.00 0.00 0.00 81 1014.1
20210919005208 81 100 0.0 0.0 0.00 0.00 0.00 80 1014.1
20210919004659 81 100 0.0 1.0 0.00 0.00 0.00 78 1014.0
20210919004202 81 100 0.0 1.0 0.00 0.00 0.00 77 1014.0
20210919003657 82 99 0.0 1.0 0.00 0.00 0.00 76 1014.0
20210919003208 82 99 0.0 2.0 0.00 0.00 0.00 75 1013.9
20210919002701 82 100 1.0 2.0 0.00 0.00 0.00 75 1013.8
20210919002212 83 43 0.0 0.0 0.00 0.00 0.00 74 1013.8
20210919001702 83 43 0.0 0.0 0.00 0.00 0.00 73 1013.8
20210919001205 84 44 0.0 0.0 0.00 0.00 0.00 72 1013.8
20210919000655 84 44 0.0 0.0 0.00 0.00 0.00 72 1013.9
20210919000206 84 44 0.0 0.0 0.00 0.00 0.00 71 1013.9
20210918235657 84 44 0.0 0.0 0.00 0.00 0.00 71 1013.8
20210918235208 84 44 0.0 0.0 0.00 0.00 0.00 70 1013.9
20210918234703 84 44 0.0 0.0 0.00 0.00 0.00 70 1014.0
20210918234204 85 44 0.0 0.0 0.00 0.00 0.00 69 1013.9
20210918233655 85 44 0.0 5.0 0.00 0.00 0.00 68 1013.9
20210918233207 85 21 2.0 5.0 0.00 0.00 0.00 68 1014.0
20210918232659 85 11 1.0 2.0 0.00 0.00 0.00 68 1013.9
20210918232210 86 21 0.0 1.0 0.00 0.00 0.00 67 1014.0
20210918231701 86 20 0.0 2.0 0.00 0.00 0.00 66 1014.0
20210918231203 86 35 0.0 3.0 0.00 0.00 0.00 66 1014.0
20210918230654 86 24 0.0 3.0 0.00 0.00 0.00 65 1014.0
20210918230210 86 9 1.0 3.0 0.00 0.00 0.00 64 1014.0
20210918225700 87 355 0.0 4.0 0.00 0.00 0.00 64 1013.9
20210918225211 87 18 2.0 5.0 0.00 0.00 0.00 62 1013.9
20210918224701 86 5 3.0 5.0 0.00 0.00 0.00 64 1013.9
20210918224204 86 28 1.0 5.0 0.00 0.00 0.00 66 1013.9
20210918223655 86 313 1.0 4.0 0.00 0.00 0.00 70 1014.0
20210918223207 86 360 1.0 5.0 0.00 0.00 0.00 71 1013.9
20210918222657 85 306 2.0 5.0 0.00 0.00 0.00 73 1013.9
20210918222209 85 291 2.0 4.0 0.00 0.00 0.00 73 1013.8
20210918221659 85 328 1.0 4.0 0.00 0.00 0.00 74 1013.8
20210918221204 85 355 2.0 4.0 0.00 0.00 0.00 73 1013.7
20210918220654 85 20 2.0 6.0 0.00 0.00 0.00 72 1013.8
20210918220206 85 5 3.0 7.0 0.00 0.00 0.00 72 1013.7
20210918215701 85 24 0.0 6.0 0.00 0.00 0.00 72 1013.5
20210918215212 84 331 2.0 6.0 0.00 0.00 0.00 72 1013.6
20210918214703 84 27 2.0 8.0 0.00 0.00 0.00 72 1013.5
20210918214206 84 13 4.0 8.0 0.00 0.00 0.00 70 1013.7
20210918213657 84 5 4.0 9.0 0.00 0.00 0.00 70 1013.8
20210918213207 84 333 2.0 9.0 0.00 0.00 0.00 68 1013.9
20210918212701 83 328 4.0 9.0 0.00 0.00 0.00 68 1013.9
20210918212156 83 310 4.0 10.0 0.00 0.00 0.00 69 1013.9
20210918211707 83 308 5.0 11.0 0.00 0.00 0.00 68 1014.0
20210918211211 83 309 5.0 15.0 0.00 0.00 0.00 70 1014.2
20210918210701 83 292 7.0 16.0 0.00 0.00 0.00 69 1014.4
20210918210211 84 285 10.0 16.0 0.00 0.00 0.00 70 1014.4
20210918205704 85 308 11.0 20.0 0.00 0.00 0.00 68 1014.5
20210918205155 87 284 10.0 20.0 0.00 0.00 0.00 64 1014.5
20210918204706 89 268 7.0 18.0 0.00 0.00 0.00 65 1014.4
20210918204209 89 360 2.0 8.0 0.00 0.00 0.00 66 1014.2
20210918203703 89 44 3.0 11.0 0.00 0.00 0.00 63 1014.2
20210918203154 90 10 4.0 11.0 0.00 0.00 0.00 62 1014.2
20210918202709 90 9 4.0 11.0 0.00 0.00 0.00 61 1014.3
20210918202200 91 360 2.0 8.0 0.00 0.00 0.00 59 1014.4
20210918201711 91 47 2.0 9.0 0.00 0.00 0.00 59 1014.6
20210918201212 92 54 2.0 12.0 0.00 0.00 0.00 59 1014.7
20210918200702 92 355 4.0 12.0 0.00 0.00 0.00 59 1014.7
20210918200154 92 53 1.0 8.0 0.00 0.00 0.00 57 1014.8
20210918195701 92 5 4.0 11.0 0.00 0.00 0.00 58 1014.8
20210918195212 91 55 4.0 11.0 0.00 0.00 0.00 57 1014.9
20210918194705 91 355 3.0 10.0 0.00 0.00 0.00 59 1014.8
20210918194204 90 30 3.0 10.0 0.00 0.00 0.00 64 1014.9
20210918193654 90 5 3.0 10.0 0.00 0.00 0.00 64 1014.9
20210918193205 89 355 4.0 11.0 0.00 0.00 0.00 65 1015.0
20210918192657 88 13 4.0 11.0 0.00 0.00 0.00 66 1015.1
20210918192205 89 36 2.0 11.0 0.00 0.00 0.00 66 1015.1
20210918191655 89 24 4.0 11.0 0.00 0.00 0.00 65 1015.2
20210918191215 89 344 2.0 9.0 0.00 0.00 0.00 64 1015.2
20210918190702 91 355 3.0 9.0 0.00 0.00 0.00 60 1015.2
20210918190211 91 350 2.0 6.0 0.00 0.00 0.00 55 1015.1
20210918185705 91 320 3.0 10.0 0.00 0.00 0.00 54 1015.1
20210918185200 91 348 3.0 10.0 0.00 0.00 0.00 56 1015.1
20210918184711 92 37 1.0 6.0 0.00 0.00 0.00 56 1015.3
20210918184212 92 25 2.0 6.0 0.00 0.00 0.00 56 1015.5
20210918183702 92 343 3.0 8.0 0.00 0.00 0.00 57 1015.6
20210918183213 91 350 2.0 9.0 0.00 0.00 0.00 58 1015.7
20210918182708 91 348 2.0 10.0 0.00 0.00 0.00 59 1015.8
20210918182158 92 35 2.0 10.0 0.00 0.00 0.00 57 1016.0
20210918181710 92 328 4.0 9.0 0.00 0.00 0.00 57 1016.0
20210918181213 92 15 2.0 11.0 0.00 0.00 0.00 57 1016.2
20210918180707 92 340 3.0 11.0 0.00 0.00 0.00 61 1016.2
20210918180158 91 350 4.0 10.0 0.00 0.00 0.00 60 1016.4
20210918175711 90 355 2.0 8.0 0.00 0.00 0.00 61 1016.4
20210918175202 90 285 4.0 8.0 0.00 0.00 0.00 60 1016.6
20210918174713 90 280 2.0 9.0 0.00 0.00 0.00 62 1016.5
20210918174156 90 343 4.0 10.0 0.00 0.00 0.00 60 1016.7
20210918173707 91 286 3.0 8.0 0.00 0.00 0.00 61 1016.7
20210918173158 91 13 2.0 8.0 0.00 0.00 0.00 62 1016.8
20210918172714 91 327 4.0 9.0 0.00 0.00 0.00 63 1016.8
20210918172204 91 355 3.0 9.0 0.00 0.00 0.00 61 1016.9
20210918171659 91 339 4.0 8.0 0.00 0.00 0.00 62 1017.0
20210918171200 90 5 1.0 9.0 0.00 0.00 0.00 64 1017.1
20210918170712 90 330 4.0 9.0 0.00 0.00 0.00 65 1017.2
20210918170204 89 360 3.0 9.0 0.00 0.00 0.00 65 1017.2
20210918165658 88 276 4.0 8.0 0.00 0.00 0.00 65 1017.3
20210918165209 88 319 2.0 10.0 0.00 0.00 0.00 68 1017.4
20210918164659 88 339 5.0 10.0 0.00 0.00 0.00 70 1017.4
20210918164202 87 326 2.0 9.0 0.00 0.00 0.00 69 1017.4
20210918163713 87 299 5.0 9.0 0.00 0.00 0.00 71 1017.5
20210918163207 87 315 3.0 9.0 0.00 0.00 0.00 71 1017.5
20210918162702 87 301 5.0 9.0 0.00 0.00 0.00 71 1017.6
20210918162153 86 302 3.0 9.0 0.00 0.00 0.00 72 1017.6
20210918161704 86 276 4.0 8.0 0.00 0.00 0.00 71 1017.7
20210918161206 86 286 3.0 8.0 0.00 0.00 0.00 73 1017.9
20210918160657 85 321 4.0 10.0 0.00 0.00 0.00 73 1017.8
20210918160207 86 290 6.0 10.0 0.00 0.00 0.00 72 1017.8
20210918155701 85 287 3.0 11.0 0.00 0.00 0.00 75 1017.8
20210918155213 85 249 8.0 11.0 0.00 0.00 0.00 74 1017.8
20210918154704 85 292 4.0 9.0 0.00 0.00 0.00 76 1017.8
20210918154210 84 270 5.0 11.0 0.00 0.00 0.00 76 1017.8
20210918153701 84 285 6.0 11.0 0.00 0.00 0.00 76 1017.9
20210918153211 84 299 7.0 10.0 0.00 0.00 0.00 78 1017.9
20210918152706 84 309 2.0 9.0 0.00 0.00 0.00 80 1017.9
20210918152158 83 270 2.0 9.0 0.00 0.00 0.00 80 1017.9
20210918151709 83 290 4.0 10.0 0.00 0.00 0.00 81 1017.9
20210918151210 82 307 6.0 10.0 0.00 0.00 0.00 82 1017.9
20210918150701 82 306 5.0 10.0 0.00 0.00 0.00 83 1017.9
20210918150212 82 296 5.0 9.0 0.00 0.00 0.00 84 1017.9
20210918145707 82 296 4.0 9.0 0.00 0.00 0.00 84 1017.9
20210918145202 81 294 4.0 7.0 0.00 0.00 0.00 85 1017.8
20210918144653 81 290 2.0 7.0 0.00 0.00 0.00 86 1017.8
20210918144156 81 312 2.0 8.0 0.00 0.00 0.00 87 1017.9
20210918143708 81 292 5.0 8.0 0.00 0.00 0.00 87 1017.7
20210918143158 80 269 3.0 7.0 0.00 0.00 0.00 89 1017.6
20210918142710 80 248 2.0 8.0 0.00 0.00 0.00 90 1017.6
20210918142201 79 281 5.0 8.0 0.00 0.00 0.00 91 1017.5
20210918141712 79 300 4.0 8.0 0.00 0.00 0.00 93 1017.4
20210918141154 79 279 1.0 4.0 0.00 0.00 0.00 95 1017.4
20210918140709 78 300 1.0 5.0 0.00 0.00 0.00 95 1017.3
20210918140200 78 279 3.0 5.0 0.00 0.00 0.00 96 1017.3
20210918135714 77 284 4.0 6.0 0.00 0.00 0.00 96 1017.2
20210918135204 77 278 2.0 4.0 0.00 0.00 0.00 97 1017.1
20210918134654 76 292 1.0 4.0 0.00 0.00 0.00 96 1017.1
20210918134156 76 294 2.0 4.0 0.00 0.00 0.00 97 1017.0
20210918133709 75 296 2.0 3.0 0.00 0.00 0.00 97 1016.9
20210918133200 75 282 1.0 3.0 0.00 0.00 0.00 97 1016.9
20210918132654 75 276 0.0 0.0 0.00 0.00 0.00 97 1016.9
20210918132205 75 277 0.0 2.0 0.00 0.00 0.00 97 1016.8
20210918131700 74 280 0.0 2.0 0.00 0.00 0.00 97 1016.7
20210918131203 74 286 1.0 2.0 0.00 0.00 0.00 97 1016.8
20210918130654 73 286 1.0 2.0 0.00 0.00 0.00 96 1016.7
20210918130205 73 286 0.0 1.0 0.00 0.00 0.00 96 1016.6
20210918125700 73 286 0.0 2.0 0.00 0.00 0.00 96 1016.6
20210918125210 73 286 0.0 2.0 0.00 0.00 0.00 96 1016.6
20210918124701 73 286 0.0 0.0 0.00 0.00 0.00 96 1016.6
20210918124204 73 286 0.0 0.0 0.00 0.00 0.00 96 1016.6
20210918123654 73 286 0.0 2.0 0.00 0.00 0.00 96 1016.6
20210918123211 73 286 0.0 3.0 0.00 0.00 0.00 96 1016.6
20210918122705 73 286 1.0 3.0 0.00 0.00 0.00 97 1016.6
20210918122155 72 271 2.0 3.0 0.00 0.00 0.00 96 1016.6
20210918121706 72 261 1.0 2.0 0.00 0.00 0.00 96 1016.6
20210918121208 72 296 1.0 2.0 0.00 0.00 0.00 96 1016.6
20210918120659 72 296 1.0 2.0 0.00 0.00 0.00 96 1016.6
20210918120211 72 296 1.0 2.0 0.00 0.00 0.00 96 1016.7
20210918115705 72 304 1.0 2.0 0.00 0.00 0.00 96 1016.6
20210918115156 72 304 0.0 2.0 0.00 0.00 0.00 96 1016.6
20210918114707 72 304 1.0 3.0 0.00 0.00 0.00 96 1016.6
20210918114212 72 291 2.0 4.0 0.00 0.00 0.00 96 1016.5
20210918113702 72 265 2.0 4.0 0.00 0.00 0.00 96 1016.5
20210918113213 72 288 2.0 4.0 0.00 0.00 0.00 96 1016.5
20210918112706 72 290 2.0 3.0 0.00 0.00 0.00 96 1016.5
20210918112157 72 250 1.0 2.0 0.00 0.00 0.00 96 1016.3
20210918111709 72 248 1.0 2.0 0.00 0.00 0.00 96 1016.3
20210918111210 72 248 1.0 2.0 0.00 0.00 0.00 96 1016.3
20210918110701 72 248 1.0 2.0 0.00 0.00 0.00 96 1016.3
20210918110213 72 248 1.0 2.0 0.00 0.00 0.00 96 1016.3
20210918105706 72 169 0.0 0.0 0.00 0.00 0.00 96 1016.3
20210918105201 72 169 0.0 0.0 0.00 0.00 0.00 96 1016.3
20210918104712 72 169 0.0 0.0 0.00 0.00 0.00 96 1016.4
20210918104213 72 169 0.0 0.0 0.00 0.00 0.00 96 1016.4
20210918103704 72 169 0.0 0.0 0.00 0.00 0.00 96 1016.4
20210918103155 72 169 0.0 0.0 0.00 0.00 0.00 96 1016.5
20210918102708 72 169 0.0 0.0 0.00 0.00 0.00 96 1016.5
20210918102158 72 169 0.0 0.0 0.00 0.00 0.00 96 1016.6
20210918101710 72 169 0.0 0.0 0.00 0.00 0.00 96 1016.6
20210918101213 72 169 0.0 0.0 0.00 0.00 0.00 96 1016.7
20210918100708 72 169 0.0 0.0 0.00 0.00 0.00 96 1016.7
20210918100159 72 169 0.0 0.0 0.00 0.00 0.00 96 1016.7
20210918095711 72 169 0.0 0.0 0.00 0.00 0.00 96 1016.6
20210918095202 72 169 0.0 0.0 0.00 0.00 0.00 95 1016.7
20210918094654 72 169 0.0 0.0 0.00 0.00 0.00 96 1016.7
20210918094157 72 169 0.0 0.0 0.00 0.00 0.00 96 1016.7
20210918093708 72 169 0.0 0.0 0.00 0.00 0.00 95 1016.6
20210918093158 72 169 0.0 0.0 0.00 0.00 0.00 95 1016.7
20210918092711 72 169 0.0 0.0 0.00 0.00 0.00 95 1016.6
20210918092201 72 169 0.0 0.0 0.00 0.00 0.00 95 1016.6
20210918091655 72 169 0.0 0.0 0.00 0.00 0.00 95 1016.5
20210918091159 72 169 0.0 0.0 0.00 0.00 0.00 95 1016.5
20210918090710 72 169 0.0 0.0 0.00 0.00 0.00 95 1016.5
20210918090201 72 169 0.0 0.0 0.00 0.00 0.00 95 1016.5
20210918085712 72 169 0.0 0.0 0.00 0.00 0.00 95 1016.4
20210918085202 72 169 0.0 0.0 0.00 0.00 0.00 95 1016.4
20210918084713 72 169 0.0 0.0 0.00 0.00 0.00 95 1016.4
20210918084156 73 169 0.0 0.0 0.00 0.00 0.00 95 1016.4
20210918083708 73 169 0.0 0.0 0.00 0.00 0.00 95 1016.3
20210918083203 73 169 0.0 0.0 0.00 0.00 0.00 95 1016.2
20210918082656 73 169 0.0 2.0 0.00 0.00 0.00 95 1016.3
20210918082206 73 169 1.0 2.0 0.00 0.00 0.00 95 1016.3
20210918081657 73 169 0.0 0.0 0.00 0.00 0.00 95 1016.3
20210918081200 73 169 0.0 1.0 0.00 0.00 0.00 94 1016.2
20210918080712 73 169 1.0 1.0 0.00 0.00 0.00 94 1016.2
20210918080203 73 169 0.0 0.0 0.00 0.00 0.00 94 1016.3
20210918075656 73 169 0.0 0.0 0.00 0.00 0.00 94 1016.3
20210918075207 73 169 0.0 1.0 0.00 0.00 0.00 94 1016.2
20210918074658 74 169 0.0 1.0 0.00 0.00 0.00 94 1016.2
20210918074203 74 169 0.0 1.0 0.00 0.00 0.00 94 1016.3
20210918073654 74 169 0.0 1.0 0.00 0.00 0.00 94 1016.3
20210918073206 74 169 0.0 1.0 0.00 0.00 0.00 94 1016.3
20210918072658 74 169 0.0 1.0 0.00 0.00 0.00 94 1016.3
20210918072209 74 169 0.0 1.0 0.00 0.00 0.00 94 1016.3
20210918071700 74 169 0.0 1.0 0.00 0.00 0.00 94 1016.3
20210918071201 74 169 0.0 1.0 0.00 0.00 0.00 93 1016.3
20210918070713 74 169 0.0 1.0 0.00 0.00 0.00 93 1016.3
20210918070159 74 169 0.0 0.0 0.00 0.00 0.00 93 1016.2
20210918065711 75 169 0.0 0.0 0.00 0.00 0.00 93 1016.1
20210918065206 75 169 0.0 1.0 0.00 0.00 0.00 94 1016.0
20210918064657 75 169 0.0 1.0 0.00 0.00 0.00 93 1016.0
20210918064200 75 169 0.0 1.0 0.00 0.00 0.00 93 1016.1
20210918063711 75 169 0.0 2.0 0.00 0.00 0.00 94 1016.0
20210918063202 76 169 0.0 3.0 0.00 0.00 0.00 94 1015.9
20210918062654 76 169 2.0 3.0 0.00 0.00 0.00 94 1015.9
20210918062205 76 169 2.0 2.0 0.00 0.00 0.00 94 1015.9
20210918061655 76 167 1.0 3.0 0.00 0.00 0.00 93 1015.8